{"data":{"norad_id":68459,"intl_designator":"2026-067AV","name":"DB GME UT (DB-GLOBE MI*)","alt_names":[],"object_type":"PAYLOAD","status":"ACTIVE","operator":null,"country":"US","launch_date":"2026-03-30","launch_site_code":"AFWTR","launch_vehicle":null,"mission":null,"orbit_class":"UNKNOWN","rcs_meters":null,"size_class":null,"mass_kg":null,"dimensions":null,"purposes":[],"wikipedia_slug":null,"has_3d_model":false,"image_url":null,"decayed_at":null,"tle_current":{"epoch":"2026-09-19T07:52:54.236928Z","epoch_age_seconds":170381,"freshness":"FRESH","line1":"1 68459U 26067AV  26262.32840552  .00003718  00000+0  18422-3 0  9998","line2":"2 68459  97.4638 219.2943 0007806  95.6486 264.5638 15.18346658 26212","mean_motion":15.18346658,"eccentricity":0.0007806,"inclination_deg":97.4638,"raan_deg":219.2943,"arg_perigee_deg":95.6486,"mean_anomaly_deg":264.5638,"bstar":0.00018422,"rev_number":2621,"period_min":94.84000194638,"perigee_km":505.45952619738,"apogee_km":516.21459249883,"semimajor_km":6888.9740593481,"source":"CELESTRAK","updated_at":"2026-09-20T09:00:24.211401Z"}}}